Time,TemperatureF,DewpointF,PressureIn,WindDirection,WindDirectionDegrees,WindSpeedMPH,WindSpeedGustMPH,Humidity,HourlyPrecipIn,Conditions,Clouds,dailyrainin,SoftwareType,DateUTC
2013-01-21 00:01:00,22.5,12.4,30.30,WNW,293,1.3,2.9,65,0.00,,,0.00,WUHU216HW,2013-01-21 05:01:00,
2013-01-21 00:02:00,22.5,12.4,30.30,SW,225,1.1,2.2,65,0.00,,,0.00,WUHU216HW,2013-01-21 05:02:00,
2013-01-21 00:03:00,22.5,12.4,30.30,SW,225,1.1,2.2,65,0.00,,,0.00,WUHU216HW,2013-01-21 05:03:00,
2013-01-21 00:08:00,22.7,11.9,30.30,WSW,248,0.7,3.4,63,0.00,,,0.00,WUHU216HW,2013-01-21 05:08:00,
2013-01-21 00:13:00,22.7,11.5,30.30,SSW,203,1.1,3.8,62,0.00,,,0.00,WUHU216HW,2013-01-21 05:13:00,
2013-01-21 00:18:00,22.5,11.1,30.30,WNW,293,3.4,3.8,61,0.00,,,0.00,WUHU216HW,2013-01-21 05:18:00,
2013-01-21 00:23:00,22.5,11.1,30.29,West,270,0.4,3.4,61,0.00,,,0.00,WUHU216HW,2013-01-21 05:23:00,
2013-01-21 00:28:00,22.7,11.2,30.29,SSW,203,0.4,2.7,61,0.00,,,0.00,WUHU216HW,2013-01-21 05:28:00,
2013-01-21 00:33:00,22.5,11.3,30.29,South,180,1.3,2.9,62,0.00,,,0.00,WUHU216HW,2013-01-21 05:33:00,
2013-01-21 00:38:00,22.3,11.6,30.29,WSW,248,2.0,4.0,63,0.00,,,0.00,WUHU216HW,2013-01-21 05:38:00,
2013-01-21 00:43:00,22.1,11.8,30.28,SSW,203,2.9,4.0,64,0.00,,,0.00,WUHU216HW,2013-01-21 05:43:00,
2013-01-21 00:48:00,22.0,11.6,30.28,SSE,158,1.1,3.4,64,0.00,,,0.00,WUHU216HW,2013-01-21 05:48:00,
2013-01-21 00:53:00,22.0,11.6,30.28,SW,225,0.9,2.2,64,0.00,,,0.00,WUHU216HW,2013-01-21 05:53:00,
2013-01-21 00:58:00,22.0,11.6,30.28,SSW,203,1.1,2.2,64,0.00,,,0.00,WUHU216HW,2013-01-21 05:58:00,
2013-01-21 01:03:00,22.0,11.3,30.28,SW,225,2.0,2.5,63,0.00,,,0.00,WUHU216HW,2013-01-21 06:03:00,
2013-01-21 01:08:00,22.0,11.3,30.28,ESE,113,0.4,2.5,63,0.00,,,0.00,WUHU216HW,2013-01-21 06:08:00,
2013-01-21 01:13:00,22.0,11.3,30.27,SW,225,1.8,2.0,63,0.00,,,0.00,WUHU216HW,2013-01-21 06:13:00,
2013-01-21 01:18:00,22.0,11.3,30.27,SSW,203,0.2,1.8,63,0.00,,,0.00,WUHU216HW,2013-01-21 06:18:00,
2013-01-21 01:23:00,22.0,11.3,30.27,ESE,113,0.2,2.5,63,0.00,,,0.00,WUHU216HW,2013-01-21 06:23:00,
2013-01-21 01:28:00,22.0,11.3,30.27,SW,225,0.9,2.5,63,0.00,,,0.00,WUHU216HW,2013-01-21 06:28:00,
2013-01-21 01:33:00,22.0,10.9,30.27,WSW,248,0.4,3.4,62,0.00,,,0.00,WUHU216HW,2013-01-21 06:33:00,
2013-01-21 01:38:00,22.0,11.3,30.27,SSW,203,0.9,3.4,63,0.00,,,0.00,WUHU216HW,2013-01-21 06:38:00,
2013-01-21 01:43:00,22.0,11.3,30.27,SW,225,0.4,2.5,63,0.00,,,0.00,WUHU216HW,2013-01-21 06:43:00,
2013-01-21 01:48:00,21.8,11.1,30.26,WSW,248,0.2,2.0,63,0.00,,,0.00,WUHU216HW,2013-01-21 06:48:00,
2013-01-21 01:53:00,21.8,11.1,30.26,South,180,1.3,3.8,63,0.00,,,0.00,WUHU216HW,2013-01-21 06:53:00,
2013-01-21 01:58:00,22.0,11.3,30.26,SSE,158,1.8,4.0,63,0.00,,,0.00,WUHU216HW,2013-01-21 06:58:00,
2013-01-21 02:03:00,21.8,11.1,30.26,WNW,293,1.3,4.0,63,0.00,,,0.00,WUHU216HW,2013-01-21 07:03:00,
2013-01-21 02:08:00,21.8,11.4,30.26,SSW,203,0.4,2.2,64,0.00,,,0.00,WUHU216HW,2013-01-21 07:08:00,
2013-01-21 02:13:00,21.6,11.3,30.26,SW,225,0.9,1.8,64,0.00,,,0.00,WUHU216HW,2013-01-21 07:13:00,
2013-01-21 02:18:00,21.4,10.7,30.26,SSW,203,2.5,2.5,63,0.00,,,0.00,WUHU216HW,2013-01-21 07:18:00,
2013-01-21 02:23:00,21.4,11.1,30.26,SSW,203,1.1,3.8,64,0.00,,,0.00,WUHU216HW,2013-01-21 07:23:00,
2013-01-21 02:28:00,21.4,11.1,30.26,South,180,1.1,3.8,64,0.00,,,0.00,WUHU216HW,2013-01-21 07:28:00,
2013-01-21 02:33:00,21.4,11.4,30.26,SW,225,1.1,2.7,65,0.00,,,0.00,WUHU216HW,2013-01-21 07:33:00,
2013-01-21 02:38:00,21.4,11.1,30.26,SE,135,1.1,2.5,64,0.00,,,0.00,WUHU216HW,2013-01-21 07:38:00,
2013-01-21 02:43:00,21.4,11.4,30.26,South,180,2.2,2.2,65,0.00,,,0.00,WUHU216HW,2013-01-21 07:43:00,
2013-01-21 02:48:00,21.4,11.1,30.26,SSE,158,3.4,3.4,64,0.00,,,0.00,WUHU216HW,2013-01-21 07:48:00,
2013-01-21 02:53:00,21.2,11.3,30.26,SW,225,1.6,3.4,65,0.00,,,0.00,WUHU216HW,2013-01-21 07:53:00,
2013-01-21 02:58:00,21.2,11.3,30.26,West,270,0.2,2.5,65,0.00,,,0.00,WUHU216HW,2013-01-21 07:58:00,
2013-01-21 03:03:00,21.2,10.9,30.26,South,180,1.8,3.4,64,0.00,,,0.00,WUHU216HW,2013-01-21 08:03:00,
2013-01-21 03:08:00,21.2,11.3,30.26,SW,225,2.0,3.4,65,0.00,,,0.00,WUHU216HW,2013-01-21 08:08:00,
2013-01-21 03:13:00,21.2,11.3,30.25,SSW,203,0.4,2.0,65,0.00,,,0.00,WUHU216HW,2013-01-21 08:13:00,
2013-01-21 03:18:00,21.2,10.9,30.25,NW,315,1.8,2.5,64,0.00,,,0.00,WUHU216HW,2013-01-21 08:18:00,
2013-01-21 03:23:00,21.2,10.9,30.25,SW,225,0.9,2.5,64,0.00,,,0.00,WUHU216HW,2013-01-21 08:23:00,
2013-01-21 03:28:00,21.2,10.9,30.25,SSW,203,4.3,4.3,64,0.00,,,0.00,WUHU216HW,2013-01-21 08:28:00,
2013-01-21 03:33:00,21.2,10.9,30.25,WSW,248,1.6,4.3,64,0.00,,,0.00,WUHU216HW,2013-01-21 08:33:00,
2013-01-21 03:38:00,21.2,10.9,30.25,WSW,248,2.0,2.0,64,0.00,,,0.00,WUHU216HW,2013-01-21 08:38:00,
2013-01-21 03:43:00,21.1,10.4,30.25,South,180,3.6,4.3,63,0.00,,,0.00,WUHU216HW,2013-01-21 08:43:00,
2013-01-21 03:48:00,21.1,10.4,30.25,SSE,158,2.0,4.3,63,0.00,,,0.00,WUHU216HW,2013-01-21 08:48:00,
2013-01-21 03:53:00,21.1,10.4,30.24,SSE,158,4.7,4.7,63,0.00,,,0.00,WUHU216HW,2013-01-21 08:53:00,
2013-01-21 03:58:00,21.1,10.1,30.24,WSW,248,1.3,5.4,62,0.00,,,0.00,WUHU216HW,2013-01-21 08:58:00,
2013-01-21 04:03:00,21.1,10.4,30.24,SSW,203,0.7,5.4,63,0.00,,,0.00,WUHU216HW,2013-01-21 09:03:00,
2013-01-21 04:08:00,21.1,10.4,30.24,NNW,338,2.5,2.7,63,0.00,,,0.00,WUHU216HW,2013-01-21 09:08:00,
2013-01-21 04:13:00,21.1,10.4,30.23,SSW,203,0.9,2.7,63,0.00,,,0.00,WUHU216HW,2013-01-21 09:13:00,
2013-01-21 04:18:00,21.1,10.1,30.23,SSW,203,2.5,2.7,62,0.00,,,0.00,WUHU216HW,2013-01-21 09:18:00,
2013-01-21 04:23:00,21.1,10.1,30.23,SW,225,0.7,3.8,62,0.00,,,0.00,WUHU216HW,2013-01-21 09:23:00,
2013-01-21 04:28:00,20.9,9.9,30.23,WSW,248,0.7,3.8,62,0.00,,,0.00,WUHU216HW,2013-01-21 09:28:00,
2013-01-21 04:33:00,21.1,10.4,30.23,WSW,248,0.4,1.8,63,0.00,,,0.00,WUHU216HW,2013-01-21 09:33:00,
2013-01-21 04:38:00,21.1,10.4,30.22,NNW,338,0.4,1.8,63,0.00,,,0.00,WUHU216HW,2013-01-21 09:38:00,
2013-01-21 04:43:00,20.9,10.2,30.22,SSW,203,1.3,4.0,63,0.00,,,0.00,WUHU216HW,2013-01-21 09:43:00,
2013-01-21 04:48:00,20.9,10.5,30.22,South,180,0.4,4.0,64,0.00,,,0.00,WUHU216HW,2013-01-21 09:48:00,
2013-01-21 04:53:00,20.9,10.5,30.22,South,180,1.6,2.0,64,0.00,,,0.00,WUHU216HW,2013-01-21 09:53:00,
2013-01-21 04:58:00,20.9,10.5,30.22,WSW,248,2.0,2.0,64,0.00,,,0.00,WUHU216HW,2013-01-21 09:58:00,
2013-01-21 05:03:00,20.9,10.2,30.22,SSW,203,1.8,3.4,63,0.00,,,0.00,WUHU216HW,2013-01-21 10:03:00,
2013-01-21 05:08:00,20.7,10.0,30.22,SW,225,0.7,3.8,63,0.00,,,0.00,WUHU216HW,2013-01-21 10:08:00,
2013-01-21 05:13:00,20.9,10.2,30.22,SW,225,1.1,3.8,63,0.00,,,0.00,WUHU216HW,2013-01-21 10:13:00,
2013-01-21 05:18:00,20.7,10.0,30.22,ESE,113,1.1,3.8,63,0.00,,,0.00,WUHU216HW,2013-01-21 10:18:00,
2013-01-21 05:23:00,20.7,10.0,30.21,SW,225,0.2,4.7,63,0.00,,,0.00,WUHU216HW,2013-01-21 10:23:00,
2013-01-21 05:28:00,20.7,10.0,30.21,SSE,158,1.3,4.7,63,0.00,,,0.00,WUHU216HW,2013-01-21 10:28:00,
2013-01-21 05:33:00,20.7,10.0,30.21,SSE,158,1.8,3.8,63,0.00,,,0.00,WUHU216HW,2013-01-21 10:33:00,
2013-01-21 05:38:00,20.7,10.0,30.21,WSW,248,0.2,3.4,63,0.00,,,0.00,WUHU216HW,2013-01-21 10:38:00,
2013-01-21 05:43:00,20.7,10.4,30.21,WNW,293,0.9,3.4,64,0.00,,,0.00,WUHU216HW,2013-01-21 10:43:00,
2013-01-21 05:48:00,20.7,10.0,30.20,South,180,2.9,3.4,63,0.00,,,0.00,WUHU216HW,2013-01-21 10:48:00,
2013-01-21 05:53:00,20.5,9.8,30.20,SSW,203,1.6,3.4,63,0.00,,,0.00,WUHU216HW,2013-01-21 10:53:00,
2013-01-21 05:58:00,20.5,9.8,30.19,SSW,203,1.8,2.9,63,0.00,,,0.00,WUHU216HW,2013-01-21 10:58:00,
2013-01-21 06:03:00,20.5,9.6,30.19,SW,225,1.3,1.8,62,0.00,,,0.00,WUHU216HW,2013-01-21 11:03:00,
2013-01-21 06:08:00,20.5,9.6,30.19,SSE,158,1.3,4.5,62,0.00,,,0.00,WUHU216HW,2013-01-21 11:08:00,
2013-01-21 06:13:00,20.5,9.6,30.19,SSW,203,2.7,4.5,62,0.00,,,0.00,WUHU216HW,2013-01-21 11:13:00,
2013-01-21 06:18:00,20.3,9.4,30.19,NW,315,0.7,2.7,62,0.00,,,0.00,WUHU216HW,2013-01-21 11:18:00,
2013-01-21 06:23:00,20.3,9.4,30.19,WNW,293,2.0,3.4,62,0.00,,,0.00,WUHU216HW,2013-01-21 11:23:00,
2013-01-21 06:28:00,20.5,9.8,30.19,WSW,248,0.7,3.4,63,0.00,,,0.00,WUHU216HW,2013-01-21 11:28:00,
2013-01-21 06:34:00,20.5,9.8,30.19,WSW,248,0.0,2.7,63,0.00,,,0.00,WUHU216HW,2013-01-21 11:34:00,
2013-01-21 06:38:00,20.5,9.8,30.19,WSW,248,1.8,3.6,63,0.00,,,0.00,WUHU216HW,2013-01-21 11:38:00,
2013-01-21 06:43:00,20.3,10.0,30.19,SW,225,1.1,3.6,64,0.00,,,0.00,WUHU216HW,2013-01-21 11:43:00,
2013-01-21 06:48:00,20.5,10.2,30.19,SW,225,2.5,4.7,64,0.00,,,0.00,WUHU216HW,2013-01-21 11:48:00,
2013-01-21 06:54:00,20.3,9.6,30.19,North,0,1.6,4.7,63,0.00,,,0.00,WUHU216HW,2013-01-21 11:54:00,
2013-01-21 06:59:00,20.3,9.4,30.19,WSW,248,2.5,3.8,62,0.00,,,0.00,WUHU216HW,2013-01-21 11:59:00,
2013-01-21 07:03:00,20.3,9.6,30.19,SSE,158,3.4,3.4,63,0.00,,,0.00,WUHU216HW,2013-01-21 12:03:00,
2013-01-21 07:08:00,20.3,9.6,30.18,SE,135,1.1,3.4,63,0.00,,,0.00,WUHU216HW,2013-01-21 12:08:00,
2013-01-21 07:13:00,20.3,9.6,30.18,SSW,203,1.6,3.1,63,0.00,,,0.00,WUHU216HW,2013-01-21 12:13:00,
2013-01-21 07:19:00,20.3,9.6,30.18,WNW,293,0.2,2.5,63,0.00,,,0.00,WUHU216HW,2013-01-21 12:19:00,
2013-01-21 07:24:00,20.3,9.4,30.18,SE,135,0.7,2.9,62,0.00,,,0.00,WUHU216HW,2013-01-21 12:24:00,
2013-01-21 07:29:00,20.3,9.4,30.18,ESE,113,1.3,2.9,62,0.00,,,0.00,WUHU216HW,2013-01-21 12:29:00,
2013-01-21 07:34:00,20.3,9.0,30.18,WSW,248,0.7,2.5,61,0.00,,,0.00,WUHU216HW,2013-01-21 12:34:00,
2013-01-21 07:39:00,20.3,9.4,30.18,West,270,1.8,3.1,62,0.00,,,0.00,WUHU216HW,2013-01-21 12:39:00,
2013-01-21 07:44:00,20.3,9.4,30.18,WNW,293,2.5,3.1,62,0.00,,,0.00,WUHU216HW,2013-01-21 12:44:00,
2013-01-21 07:49:00,20.3,9.4,30.17,South,180,1.1,2.5,62,0.00,,,0.00,WUHU216HW,2013-01-21 12:49:00,
2013-01-21 07:54:00,20.5,9.6,30.17,SSW,203,0.2,1.8,62,0.00,,,0.00,WUHU216HW,2013-01-21 12:54:00,
2013-01-21 07:59:00,20.5,9.2,30.17,WSW,248,0.4,1.8,61,0.00,,,0.00,WUHU216HW,2013-01-21 12:59:00,
2013-01-21 08:04:00,20.3,9.4,30.18,SSW,203,1.1,1.8,62,0.00,,,0.00,WUHU216HW,2013-01-21 13:04:00,
2013-01-21 08:09:00,20.3,9.0,30.18,WSW,248,2.5,2.5,61,0.00,,,0.00,WUHU216HW,2013-01-21 13:09:00,
2013-01-21 08:14:00,20.3,9.0,30.18,West,270,0.4,3.4,61,0.00,,,0.00,WUHU216HW,2013-01-21 13:14:00,
2013-01-21 08:19:00,20.5,9.2,30.18,South,180,2.9,3.4,61,0.00,,,0.00,WUHU216HW,2013-01-21 13:19:00,
2013-01-21 08:24:00,20.3,8.3,30.18,WSW,248,2.2,4.0,59,0.00,,,0.00,WUHU216HW,2013-01-21 13:24:00,
2013-01-21 08:29:00,20.3,8.3,30.18,SSE,158,1.3,4.0,59,0.00,,,0.00,WUHU216HW,2013-01-21 13:29:00,
2013-01-21 08:34:00,20.5,8.4,30.18,SE,135,0.4,4.0,59,0.00,,,0.00,WUHU216HW,2013-01-21 13:34:00,
2013-01-21 08:39:00,20.5,8.8,30.18,SW,225,1.6,4.0,60,0.00,,,0.00,WUHU216HW,2013-01-21 13:39:00,
2013-01-21 08:44:00,20.5,8.4,30.18,SSE,158,0.4,2.0,59,0.00,,,0.00,WUHU216HW,2013-01-21 13:44:00,
2013-01-21 08:49:00,20.5,8.8,30.18,SSE,158,1.6,2.0,60,0.00,,,0.00,WUHU216HW,2013-01-21 13:49:00,
2013-01-21 08:54:00,20.5,8.8,30.18,South,180,0.7,2.0,60,0.00,,,0.00,WUHU216HW,2013-01-21 13:54:00,
2013-01-21 08:59:00,20.5,9.2,30.18,North,0,0.4,3.8,61,0.00,,,0.00,WUHU216HW,2013-01-21 13:59:00,
2013-01-21 09:04:00,20.7,9.0,30.18,SSE,158,0.7,3.8,60,0.00,,,0.00,WUHU216HW,2013-01-21 14:04:00,
2013-01-21 09:09:00,20.7,9.4,30.18,SSW,203,2.0,3.8,61,0.00,,,0.00,WUHU216HW,2013-01-21 14:09:00,
2013-01-21 09:14:00,20.5,8.8,30.18,SSE,158,1.8,3.8,60,0.00,,,0.00,WUHU216HW,2013-01-21 14:14:00,
2013-01-21 09:19:00,20.7,9.0,30.18,NW,315,0.9,2.9,60,0.00,,,0.00,WUHU216HW,2013-01-21 14:19:00,
2013-01-21 09:24:00,20.7,9.4,30.18,SSE,158,2.7,2.9,61,0.00,,,0.00,WUHU216HW,2013-01-21 14:24:00,
2013-01-21 09:29:00,20.9,9.6,30.18,SE,135,0.7,2.9,61,0.00,,,0.00,WUHU216HW,2013-01-21 14:29:00,
2013-01-21 09:34:00,21.1,9.4,30.18,WSW,248,1.3,2.9,60,0.00,,,0.00,WUHU216HW,2013-01-21 14:34:00,
2013-01-21 09:39:00,20.9,9.6,30.18,South,180,1.6,2.2,61,0.00,,,0.00,WUHU216HW,2013-01-21 14:39:00,
2013-01-21 09:44:00,21.2,9.9,30.17,SSE,158,0.7,4.0,61,0.00,,,0.00,WUHU216HW,2013-01-21 14:44:00,
2013-01-21 09:49:00,21.2,9.9,30.17,SSE,158,1.1,4.0,61,0.00,,,0.00,WUHU216HW,2013-01-21 14:49:00,
2013-01-21 09:54:00,21.2,9.9,30.17,SSW,203,2.9,2.9,61,0.00,,,0.00,WUHU216HW,2013-01-21 14:54:00,
2013-01-21 09:59:00,21.1,9.4,30.17,NW,315,2.0,2.9,60,0.00,,,0.00,WUHU216HW,2013-01-21 14:59:00,
2013-01-21 10:04:00,21.2,9.9,30.17,WSW,248,2.5,2.5,61,0.00,,,0.00,WUHU216HW,2013-01-21 15:04:00,
2013-01-21 10:09:00,21.2,9.5,30.17,SE,135,2.5,2.7,60,0.00,,,0.00,WUHU216HW,2013-01-21 15:09:00,
2013-01-21 10:14:00,21.2,9.9,30.17,WSW,248,4.0,4.0,61,0.00,,,0.00,WUHU216HW,2013-01-21 15:14:00,
2013-01-21 10:19:00,21.2,9.1,30.17,SSW,203,0.4,4.0,59,0.00,,,0.00,WUHU216HW,2013-01-21 15:19:00,
2013-01-21 10:24:00,21.2,9.5,30.18,SW,225,2.2,6.0,60,0.00,,,0.00,WUHU216HW,2013-01-21 15:24:00,
2013-01-21 10:29:00,21.2,9.1,30.18,SW,225,3.6,6.0,59,0.00,,,0.00,WUHU216HW,2013-01-21 15:29:00,
2013-01-21 10:34:00,21.6,9.5,30.18,ESE,113,1.6,3.6,59,0.00,,,0.00,WUHU216HW,2013-01-21 15:34:00,
2013-01-21 10:39:00,21.8,9.2,30.18,South,180,2.0,3.8,58,0.00,,,0.00,WUHU216HW,2013-01-21 15:39:00,
2013-01-21 10:44:00,22.0,9.0,30.18,SSW,203,3.1,3.8,57,0.00,,,0.00,WUHU216HW,2013-01-21 15:44:00,
2013-01-21 10:49:00,22.0,9.4,30.18,WNW,293,1.1,3.1,58,0.00,,,0.00,WUHU216HW,2013-01-21 15:49:00,
2013-01-21 10:54:00,22.1,9.1,30.18,West,270,2.2,4.0,57,0.00,,,0.00,WUHU216HW,2013-01-21 15:54:00,
2013-01-21 10:59:00,22.0,9.0,30.18,SW,225,3.6,4.7,57,0.00,,,0.00,WUHU216HW,2013-01-21 15:59:00,
2013-01-21 11:04:00,22.1,9.9,30.18,ESE,113,2.5,4.7,59,0.00,,,0.00,WUHU216HW,2013-01-21 16:04:00,
2013-01-21 11:09:00,22.0,10.5,30.18,SW,225,2.0,3.4,61,0.00,,,0.00,WUHU216HW,2013-01-21 16:09:00,
2013-01-21 11:14:00,22.0,10.5,30.18,WNW,293,2.9,3.4,61,0.00,,,0.00,WUHU216HW,2013-01-21 16:14:00,
2013-01-21 11:18:00,22.0,11.3,30.18,WNW,293,2.2,2.9,63,0.00,,,0.00,WUHU216HW,2013-01-21 16:18:00,
2013-01-21 11:23:00,22.1,11.8,30.18,NW,315,0.9,4.7,64,0.00,,,0.00,WUHU216HW,2013-01-21 16:23:00,
2013-01-21 11:28:00,22.0,11.6,30.18,WSW,248,0.4,4.7,64,0.00,,,0.00,WUHU216HW,2013-01-21 16:28:00,
2013-01-21 11:33:00,22.0,12.2,30.18,South,180,1.3,2.2,66,0.00,,,0.00,WUHU216HW,2013-01-21 16:33:00,
2013-01-21 11:38:00,21.8,13.5,30.18,WSW,248,4.0,4.0,70,0.00,,,0.00,WUHU216HW,2013-01-21 16:38:00,
2013-01-21 11:43:00,21.4,14.4,30.18,ESE,113,0.9,4.0,74,0.00,,,0.00,WUHU216HW,2013-01-21 16:43:00,
2013-01-21 11:48:00,21.6,14.9,30.18,SW,225,2.0,3.8,75,0.00,,,0.00,WUHU216HW,2013-01-21 16:48:00,
2013-01-21 11:54:00,21.6,14.0,30.17,South,180,2.0,3.8,72,0.00,,,0.00,WUHU216HW,2013-01-21 16:54:00,
2013-01-21 11:59:00,22.0,13.3,30.17,SE,135,0.7,3.4,69,0.00,,,0.00,WUHU216HW,2013-01-21 16:59:00,
2013-01-21 12:04:00,22.0,12.6,30.16,West,270,3.4,3.4,67,0.00,,,0.00,WUHU216HW,2013-01-21 17:04:00,
2013-01-21 12:09:00,22.0,13.0,30.16,SW,225,1.6,3.4,68,0.00,,,0.00,WUHU216HW,2013-01-21 17:09:00,
2013-01-21 12:14:00,22.0,13.0,30.16,SW,225,0.9,4.7,68,0.00,,,0.00,WUHU216HW,2013-01-21 17:14:00,
2013-01-21 12:19:00,22.0,13.0,30.15,East,90,1.8,4.7,68,0.00,,,0.00,WUHU216HW,2013-01-21 17:19:00,
2013-01-21 12:24:00,22.3,10.9,30.15,SSW,203,4.3,4.3,61,0.00,,,0.00,WUHU216HW,2013-01-21 17:24:00,
2013-01-21 12:28:00,22.9,9.0,30.14,South,180,4.7,4.7,55,0.00,,,0.00,WUHU216HW,2013-01-21 17:28:00,
2013-01-21 12:33:00,23.4,9.1,30.14,WNW,293,1.6,4.7,54,0.00,,,0.00,WUHU216HW,2013-01-21 17:33:00,
2013-01-21 12:38:00,23.6,7.2,30.13,ESE,113,1.3,5.6,49,0.00,,,0.00,WUHU216HW,2013-01-21 17:38:00,
2013-01-21 12:43:00,23.6,7.2,30.13,WSW,248,5.4,5.6,49,0.00,,,0.00,WUHU216HW,2013-01-21 17:43:00,
2013-01-21 12:48:00,23.4,7.0,30.13,West,270,1.3,6.0,49,0.00,,,0.00,WUHU216HW,2013-01-21 17:48:00,
2013-01-21 12:53:00,23.4,7.6,30.12,South,180,5.4,7.6,50,0.00,,,0.00,WUHU216HW,2013-01-21 17:53:00,
2013-01-21 12:58:00,23.4,7.6,30.13,NNW,338,5.4,7.6,50,0.00,,,0.00,WUHU216HW,2013-01-21 17:58:00,
2013-01-21 13:03:00,23.4,7.6,30.12,SSW,203,4.7,5.4,50,0.00,,,0.00,WUHU216HW,2013-01-21 18:03:00,
2013-01-21 13:08:00,23.4,7.6,30.12,NE,45,1.8,4.7,50,0.00,,,0.00,WUHU216HW,2013-01-21 18:08:00,
2013-01-21 13:13:00,23.4,7.6,30.13,SW,225,1.1,4.7,50,0.00,,,0.00,WUHU216HW,2013-01-21 18:13:00,
2013-01-21 13:19:00,23.0,7.6,30.13,WSW,248,2.7,6.0,51,0.00,,,0.00,WUHU216HW,2013-01-21 18:19:00,
2013-01-21 13:24:00,23.0,7.2,30.13,SW,225,2.2,6.0,50,0.00,,,0.00,WUHU216HW,2013-01-21 18:24:00,
2013-01-21 13:28:00,22.9,7.0,30.13,NNE,23,1.1,3.8,50,0.00,,,0.00,WUHU216HW,2013-01-21 18:28:00,
2013-01-21 13:33:00,22.9,6.6,30.13,SW,225,5.1,8.1,49,0.00,,,0.00,WUHU216HW,2013-01-21 18:33:00,
2013-01-21 13:38:00,22.9,6.6,30.13,North,0,3.4,8.1,49,0.00,,,0.00,WUHU216HW,2013-01-21 18:38:00,
2013-01-21 13:43:00,22.7,6.8,30.13,West,270,5.4,7.4,50,0.00,,,0.00,WUHU216HW,2013-01-21 18:43:00,
2013-01-21 13:48:00,22.7,7.2,30.14,SW,225,2.9,8.1,51,0.00,,,0.00,WUHU216HW,2013-01-21 18:48:00,
2013-01-21 13:53:00,22.5,7.5,30.14,NW,315,2.5,8.1,52,0.00,,,0.00,WUHU216HW,2013-01-21 18:53:00,
2013-01-21 13:58:00,22.5,8.3,30.14,WSW,248,2.7,7.2,54,0.00,,,0.00,WUHU216HW,2013-01-21 18:58:00,
2013-01-21 14:03:00,22.5,7.8,30.14,ENE,68,2.0,7.2,53,0.00,,,0.00,WUHU216HW,2013-01-21 19:03:00,
2013-01-21 14:08:00,22.5,9.1,30.15,WNW,293,4.7,4.7,56,0.00,,,0.00,WUHU216HW,2013-01-21 19:08:00,
2013-01-21 14:13:00,22.7,9.3,30.15,WNW,293,0.9,4.7,56,0.00,,,0.00,WUHU216HW,2013-01-21 19:13:00,
2013-01-21 14:18:00,22.9,9.0,30.15,South,180,1.6,5.8,55,0.00,,,0.00,WUHU216HW,2013-01-21 19:18:00,
2013-01-21 14:23:00,22.9,9.0,30.14,South,180,2.2,5.8,55,0.00,,,0.00,WUHU216HW,2013-01-21 19:23:00,
2013-01-21 14:28:00,22.7,8.8,30.15,NW,315,3.6,5.6,55,0.00,,,0.00,WUHU216HW,2013-01-21 19:28:00,
2013-01-21 14:33:00,22.7,9.6,30.14,NW,315,5.6,5.6,57,0.00,,,0.00,WUHU216HW,2013-01-21 19:33:00,
2013-01-21 14:38:00,22.7,10.8,30.15,West,270,4.0,5.6,60,0.00,,,0.00,WUHU216HW,2013-01-21 19:38:00,
2013-01-21 14:43:00,22.5,9.9,30.15,SW,225,2.0,4.3,58,0.00,,,0.00,WUHU216HW,2013-01-21 19:43:00,
2013-01-21 14:48:00,22.0,9.0,30.14,WSW,248,2.7,4.3,57,0.00,,,0.00,WUHU216HW,2013-01-21 19:48:00,
2013-01-21 14:53:00,22.0,8.2,30.14,WSW,248,2.7,5.8,55,0.00,,,0.00,WUHU216HW,2013-01-21 19:53:00,
2013-01-21 14:58:00,22.1,7.9,30.14,SW,225,1.8,5.8,54,0.00,,,0.00,WUHU216HW,2013-01-21 19:58:00,
2013-01-21 15:03:00,22.7,8.8,30.14,WSW,248,2.0,3.1,55,0.00,,,0.00,WUHU216HW,2013-01-21 20:03:00,
2013-01-21 15:08:00,22.7,8.0,30.15,West,270,2.7,3.1,53,0.00,,,0.00,WUHU216HW,2013-01-21 20:08:00,
2013-01-21 15:13:00,22.0,11.3,30.15,SW,225,3.8,5.1,63,0.00,,,0.00,WUHU216HW,2013-01-21 20:13:00,
2013-01-21 15:19:00,21.8,10.7,30.16,SSW,203,4.0,5.1,62,0.00,,,0.00,WUHU216HW,2013-01-21 20:19:00,
2013-01-21 15:24:00,21.6,9.0,30.16,South,180,7.6,7.6,58,0.00,,,0.00,WUHU216HW,2013-01-21 20:24:00,
2013-01-21 15:29:00,22.0,6.9,30.16,SW,225,3.1,7.6,52,0.00,,,0.00,WUHU216HW,2013-01-21 20:29:00,
2013-01-21 15:34:00,22.1,6.3,30.16,SE,135,5.4,5.4,50,0.00,,,0.00,WUHU216HW,2013-01-21 20:34:00,
2013-01-21 15:39:00,22.0,6.6,30.16,WNW,293,1.1,5.4,51,0.00,,,0.00,WUHU216HW,2013-01-21 20:39:00,
2013-01-21 15:44:00,22.0,9.8,30.17,NNW,338,1.3,3.8,59,0.00,,,0.00,WUHU216HW,2013-01-21 20:44:00,
2013-01-21 15:49:00,22.0,10.2,30.17,West,270,2.2,5.4,60,0.00,,,0.00,WUHU216HW,2013-01-21 20:49:00,
2013-01-21 15:54:00,21.6,8.7,30.18,WSW,248,2.2,5.4,57,0.00,,,0.00,WUHU216HW,2013-01-21 20:54:00,
2013-01-21 15:59:00,20.9,6.0,30.18,NW,315,3.4,5.1,52,0.00,,,0.00,WUHU216HW,2013-01-21 20:59:00,
2013-01-21 16:04:00,20.9,4.6,30.18,East,90,1.3,5.1,49,0.00,,,0.00,WUHU216HW,2013-01-21 21:04:00,
2013-01-21 16:09:00,20.5,5.1,30.18,West,270,1.8,4.9,51,0.00,,,0.00,WUHU216HW,2013-01-21 21:09:00,
2013-01-21 16:14:00,19.8,10.2,30.18,WSW,248,3.6,8.3,66,0.00,,,0.00,WUHU216HW,2013-01-21 21:14:00,
2013-01-21 16:19:00,19.1,10.5,30.18,SW,225,2.2,8.3,69,0.00,,,0.00,WUHU216HW,2013-01-21 21:19:00,
2013-01-21 16:24:00,18.9,10.4,30.18,SSW,203,0.7,3.8,69,0.00,,,0.00,WUHU216HW,2013-01-21 21:24:00,
2013-01-21 16:29:00,18.7,10.2,30.18,SSW,203,1.1,3.6,69,0.00,,,0.00,WUHU216HW,2013-01-21 21:29:00,
2013-01-21 16:34:00,18.9,10.0,30.18,SW,225,2.0,4.5,68,0.00,,,0.00,WUHU216HW,2013-01-21 21:34:00,
2013-01-21 16:39:00,19.1,10.2,30.18,NNE,23,1.8,5.4,68,0.00,,,0.00,WUHU216HW,2013-01-21 21:39:00,
2013-01-21 16:44:00,18.7,9.2,30.18,South,180,2.7,5.4,66,0.00,,,0.00,WUHU216HW,2013-01-21 21:44:00,
2013-01-21 16:49:00,18.7,8.5,30.18,West,270,1.3,6.3,64,0.00,,,0.00,WUHU216HW,2013-01-21 21:49:00,
2013-01-21 16:54:00,18.7,7.7,30.19,NW,315,2.7,6.7,62,0.00,,,0.00,WUHU216HW,2013-01-21 21:54:00,
2013-01-21 16:59:00,18.4,8.1,30.19,WNW,293,6.7,6.7,64,0.00,,,0.00,WUHU216HW,2013-01-21 21:59:00,
2013-01-21 17:04:00,18.0,8.5,30.20,West,270,1.1,6.7,66,0.00,,,0.00,WUHU216HW,2013-01-21 22:04:00,
2013-01-21 17:09:00,18.0,8.2,30.20,SW,225,2.7,3.4,65,0.00,,,0.00,WUHU216HW,2013-01-21 22:09:00,
2013-01-21 17:14:00,18.4,8.1,30.20,SSW,203,1.8,4.5,64,0.00,,,0.00,WUHU216HW,2013-01-21 22:14:00,
2013-01-21 17:19:00,18.4,7.1,30.20,SSW,203,2.9,5.6,61,0.00,,,0.00,WUHU216HW,2013-01-21 22:19:00,
2013-01-21 17:24:00,18.2,6.9,30.20,WNW,293,2.2,5.6,61,0.00,,,0.00,WUHU216HW,2013-01-21 22:24:00,
2013-01-21 17:29:00,18.0,6.8,30.20,SW,225,1.3,8.5,61,0.00,,,0.00,WUHU216HW,2013-01-21 22:29:00,
2013-01-21 17:34:00,17.8,6.7,30.20,NW,315,4.3,8.5,61,0.00,,,0.00,WUHU216HW,2013-01-21 22:34:00,
2013-01-21 17:39:00,18.0,6.8,30.20,ENE,68,3.1,4.7,61,0.00,,,0.00,WUHU216HW,2013-01-21 22:39:00,
2013-01-21 17:44:00,18.0,6.8,30.20,NW,315,3.8,4.3,61,0.00,,,0.00,WUHU216HW,2013-01-21 22:44:00,
2013-01-21 17:49:00,18.0,7.5,30.20,SW,225,1.8,5.4,63,0.00,,,0.00,WUHU216HW,2013-01-21 22:49:00,
2013-01-21 17:54:00,17.8,7.7,30.20,West,270,2.9,5.4,64,0.00,,,0.00,WUHU216HW,2013-01-21 22:54:00,
2013-01-21 17:59:00,17.8,6.9,30.20,SW,225,1.6,4.0,62,0.00,,,0.00,WUHU216HW,2013-01-21 22:59:00,
2013-01-21 18:04:00,18.0,7.1,30.20,SSW,203,2.2,4.3,62,0.00,,,0.00,WUHU216HW,2013-01-21 23:04:00,
2013-01-21 18:09:00,17.6,9.2,30.21,SW,225,1.1,6.3,69,0.00,,,0.00,WUHU216HW,2013-01-21 23:09:00,
2013-01-21 18:14:00,16.9,10.6,30.21,WSW,248,4.7,6.3,76,0.00,,,0.00,WUHU216HW,2013-01-21 23:14:00,
2013-01-21 18:19:00,16.4,11.0,30.21,WNW,293,4.0,6.3,79,0.00,,,0.00,WUHU216HW,2013-01-21 23:19:00,
2013-01-21 18:24:00,16.2,11.3,30.21,West,270,2.7,6.3,81,0.00,,,0.00,WUHU216HW,2013-01-21 23:24:00,
2013-01-21 18:29:00,16.0,11.4,30.21,South,180,4.5,5.6,82,0.00,,,0.00,WUHU216HW,2013-01-21 23:29:00,
2013-01-21 18:34:00,16.0,11.7,30.21,SSE,158,3.8,6.0,83,0.00,,,0.00,WUHU216HW,2013-01-21 23:34:00,
2013-01-21 18:39:00,16.0,11.3,30.21,SE,135,1.6,6.0,81,0.00,,,0.00,WUHU216HW,2013-01-21 23:39:00,
2013-01-21 18:44:00,16.2,10.5,30.21,WNW,293,3.6,4.5,78,0.00,,,0.00,WUHU216HW,2013-01-21 23:44:00,
2013-01-21 18:49:00,16.2,8.4,30.21,West,270,1.1,5.4,71,0.00,,,0.00,WUHU216HW,2013-01-21 23:49:00,
2013-01-21 18:54:00,16.2,8.4,30.21,WSW,248,2.0,5.4,71,0.00,,,0.00,WUHU216HW,2013-01-21 23:54:00,
2013-01-21 18:59:00,16.2,8.1,30.21,WSW,248,3.8,5.1,70,0.00,,,0.00,WUHU216HW,2013-01-21 23:59:00,
2013-01-21 19:04:00,16.2,8.7,30.21,WSW,248,3.4,4.5,72,0.00,,,0.00,WUHU216HW,2013-01-22 00:04:00,
2013-01-21 19:09:00,16.2,8.4,30.21,NE,45,0.4,4.3,71,0.00,,,0.00,WUHU216HW,2013-01-22 00:09:00,
2013-01-21 19:14:00,16.4,8.6,30.22,SE,135,3.8,4.3,71,0.00,,,0.00,WUHU216HW,2013-01-22 00:14:00,
2013-01-21 19:19:00,16.2,8.4,30.22,SW,225,1.3,4.5,71,0.00,,,0.00,WUHU216HW,2013-01-22 00:19:00,
2013-01-21 19:24:00,15.8,9.5,30.22,East,90,1.8,5.4,76,0.00,,,0.00,WUHU216HW,2013-01-22 00:24:00,
2013-01-21 19:29:00,15.5,9.8,30.23,NNE,23,2.0,5.4,78,0.00,,,0.00,WUHU216HW,2013-01-22 00:29:00,
2013-01-21 19:34:00,15.3,10.5,30.23,SW,225,2.9,5.1,81,0.00,,,0.00,WUHU216HW,2013-01-22 00:34:00,
2013-01-21 19:39:00,15.3,10.0,30.23,WSW,248,1.1,5.1,79,0.00,,,0.00,WUHU216HW,2013-01-22 00:39:00,
2013-01-21 19:44:00,15.3,10.0,30.24,SW,225,3.4,5.1,79,0.00,,,0.00,WUHU216HW,2013-01-22 00:44:00,
2013-01-21 19:49:00,15.1,9.2,30.23,SW,225,4.5,4.5,77,0.00,,,0.00,WUHU216HW,2013-01-22 00:49:00,
2013-01-21 19:54:00,14.9,9.6,30.23,WNW,293,3.1,5.4,79,0.00,,,0.00,WUHU216HW,2013-01-22 00:54:00,
2013-01-21 19:59:00,14.8,10.3,30.23,SSW,203,4.7,5.4,82,0.00,,,0.00,WUHU216HW,2013-01-22 00:59:00,
2013-01-21 20:04:00,14.8,10.3,30.23,NE,45,1.6,4.7,82,0.00,,,0.00,WUHU216HW,2013-01-22 01:04:00,
2013-01-21 20:09:00,14.8,10.0,30.23,WSW,248,2.5,4.7,81,0.00,,,0.00,WUHU216HW,2013-01-22 01:09:00,
2013-01-21 20:14:00,14.8,10.0,30.24,WSW,248,4.9,4.9,81,0.00,,,0.00,WUHU216HW,2013-01-22 01:14:00,
2013-01-21 20:19:00,14.8,10.8,30.24,SW,225,1.6,4.9,84,0.00,,,0.00,WUHU216HW,2013-01-22 01:19:00,
2013-01-21 20:24:00,14.8,10.8,30.24,WSW,248,1.1,4.3,84,0.00,,,0.00,WUHU216HW,2013-01-22 01:24:00,
2013-01-21 20:29:00,14.6,10.4,30.24,SW,225,2.7,4.3,83,0.00,,,0.00,WUHU216HW,2013-01-22 01:29:00,
2013-01-21 20:34:00,14.6,10.6,30.24,SSW,203,1.8,3.1,84,0.00,,,0.00,WUHU216HW,2013-01-22 01:34:00,
2013-01-21 20:39:00,14.6,10.6,30.24,NNW,338,2.5,3.6,84,0.00,,,0.00,WUHU216HW,2013-01-22 01:39:00,
2013-01-21 20:44:00,14.4,10.5,30.25,WSW,248,2.2,3.6,84,0.00,,,0.00,WUHU216HW,2013-01-22 01:44:00,
2013-01-21 20:49:00,14.4,10.5,30.25,WNW,293,2.9,3.1,84,0.00,,,0.00,WUHU216HW,2013-01-22 01:49:00,
2013-01-21 20:54:00,14.4,10.5,30.25,SW,225,1.6,5.4,84,0.00,,,0.00,WUHU216HW,2013-01-22 01:54:00,
2013-01-21 20:59:00,14.2,10.3,30.25,West,270,3.4,5.4,84,0.00,,,0.00,WUHU216HW,2013-01-22 01:59:00,
2013-01-21 21:04:00,14.0,9.3,30.24,South,180,2.0,3.4,81,0.00,,,0.00,WUHU216HW,2013-01-22 02:04:00,
2013-01-21 21:09:00,14.0,7.8,30.24,WSW,248,1.8,6.0,76,0.00,,,0.00,WUHU216HW,2013-01-22 02:09:00,
2013-01-21 21:14:00,14.0,7.6,30.24,SSW,203,3.4,6.0,75,0.00,,,0.00,WUHU216HW,2013-01-22 02:14:00,
2013-01-21 21:19:00,14.0,7.8,30.24,South,180,4.0,5.4,76,0.00,,,0.00,WUHU216HW,2013-01-22 02:19:00,
2013-01-21 21:24:00,14.2,8.0,30.24,SW,225,2.9,4.0,76,0.00,,,0.00,WUHU216HW,2013-01-22 02:24:00,
2013-01-21 21:29:00,14.4,7.3,30.23,NW,315,7.4,7.4,73,0.00,,,0.00,WUHU216HW,2013-01-22 02:29:00,
2013-01-21 21:34:00,14.2,8.0,30.23,South,180,2.9,7.4,76,0.00,,,0.00,WUHU216HW,2013-01-22 02:34:00,
2013-01-21 21:39:00,14.0,8.7,30.23,SSW,203,2.2,3.8,79,0.00,,,0.00,WUHU216HW,2013-01-22 02:39:00,
2013-01-21 21:44:00,13.7,7.7,30.23,WSW,248,4.5,4.5,77,0.00,,,0.00,WUHU216HW,2013-01-22 02:44:00,
2013-01-21 21:49:00,13.9,7.1,30.23,NNW,338,2.0,4.7,74,0.00,,,0.00,WUHU216HW,2013-01-22 02:49:00,
2013-01-21 21:54:00,13.9,5.2,30.24,West,270,4.5,4.7,68,0.00,,,0.00,WUHU216HW,2013-01-22 02:54:00,
2013-01-21 21:59:00,13.7,5.0,30.24,SSW,203,3.4,4.5,68,0.00,,,0.00,WUHU216HW,2013-01-22 02:59:00,
2013-01-21 22:04:00,13.5,4.9,30.24,SW,225,2.5,7.2,68,0.00,,,0.00,WUHU216HW,2013-01-22 03:04:00,
2013-01-21 22:09:00,13.3,4.1,30.24,WSW,248,2.9,7.2,66,0.00,,,0.00,WUHU216HW,2013-01-22 03:09:00,
2013-01-21 22:14:00,13.3,4.4,30.24,WNW,293,4.0,4.9,67,0.00,,,0.00,WUHU216HW,2013-01-22 03:14:00,
2013-01-21 22:19:00,13.1,3.9,30.24,ESE,113,3.1,6.0,66,0.00,,,0.00,WUHU216HW,2013-01-22 03:19:00,
2013-01-21 22:24:00,13.0,4.1,30.24,West,270,4.3,6.0,67,0.00,,,0.00,WUHU216HW,2013-01-22 03:24:00,
2013-01-21 22:29:00,12.8,4.5,30.24,SW,225,2.5,4.5,69,0.00,,,0.00,WUHU216HW,2013-01-22 03:29:00,
2013-01-21 22:34:00,12.6,4.0,30.24,SSW,203,1.1,6.0,68,0.00,,,0.00,WUHU216HW,2013-01-22 03:34:00,
2013-01-21 22:39:00,12.6,3.0,30.24,NNW,338,0.2,6.0,65,0.00,,,0.00,WUHU216HW,2013-01-22 03:39:00,
2013-01-21 22:44:00,12.8,2.8,30.23,SSW,203,2.9,5.4,64,0.00,,,0.00,WUHU216HW,2013-01-22 03:44:00,
2013-01-21 22:49:00,13.0,1.6,30.23,NW,315,7.6,7.6,60,0.00,,,0.00,WUHU216HW,2013-01-22 03:49:00,
2013-01-21 22:54:00,13.0,1.3,30.23,South,180,3.4,7.6,59,0.00,,,0.00,WUHU216HW,2013-01-22 03:54:00,
2013-01-21 22:59:00,13.0,1.6,30.23,SW,225,0.7,5.8,60,0.00,,,0.00,WUHU216HW,2013-01-22 03:59:00,
2013-01-21 23:04:00,13.0,1.6,30.23,SSW,203,1.8,4.3,60,0.00,,,0.00,WUHU216HW,2013-01-22 04:04:00,
2013-01-21 23:09:00,13.0,0.8,30.22,NNW,338,3.1,6.5,58,0.00,,,0.00,WUHU216HW,2013-01-22 04:09:00,
2013-01-21 23:14:00,13.0,2.0,30.22,NW,315,2.5,6.5,61,0.00,,,0.00,WUHU216HW,2013-01-22 04:14:00,
2013-01-21 23:19:00,12.6,3.0,30.22,NNE,23,1.1,4.0,65,0.00,,,0.00,WUHU216HW,2013-01-22 04:19:00,
2013-01-21 23:24:00,12.6,2.6,30.22,West,270,1.1,5.1,64,0.00,,,0.00,WUHU216HW,2013-01-22 04:24:00,
2013-01-21 23:29:00,12.6,3.3,30.23,South,180,7.6,7.6,66,0.00,,,0.00,WUHU216HW,2013-01-22 04:29:00,
2013-01-21 23:34:00,12.2,3.6,30.23,NW,315,1.8,7.6,68,0.00,,,0.00,WUHU216HW,2013-01-22 04:34:00,
2013-01-21 23:39:00,12.2,4.6,30.23,SSE,158,4.0,6.7,71,0.00,,,0.00,WUHU216HW,2013-01-22 04:39:00,
2013-01-21 23:44:00,11.9,4.9,30.24,SSW,203,1.8,6.7,73,0.00,,,0.00,WUHU216HW,2013-01-22 04:44:00,
2013-01-21 23:49:00,11.9,5.1,30.24,SW,225,6.5,6.5,74,0.00,,,0.00,WUHU216HW,2013-01-22 04:49:00,
2013-01-21 23:54:00,11.7,4.7,30.24,West,270,2.5,6.5,73,0.00,,,0.00,WUHU216HW,2013-01-22 04:54:00,
2013-01-21 23:59:00,11.3,5.8,30.25,SW,225,4.0,6.3,78,0.00,,,0.00,WUHU216HW,2013-01-22 04:59:00,